Location: Berg
(48.5667°N, 13.9833°E)
Time: 05:11:44
(UTC+00:00)

Lacrosse 5 rocket - Pass Details

Date: 09 April 2020
Orbit: 458 x 638 km, 57.0° (Epoch: 02 June)

Event Time Altitude Azimuth Distance (km) Brightness Sun altitude
Exits shadow 23:54:16 12° 51° (NE) 1,574 4.2 -32.4°
Drops below altitude 10° 23:54:38 10° 52° (NE) 1,721 4.4 -32.4°
Sets 23:56:53 0° 54° (NE) 2,640 5.5 -32.3°
